Location: Brachbach
(49.1847°N, 9.7240°E)
Time: 01:51:46
(UTC+00:00)

ARIANE 6 FM1 Upper Stage - Pass Details

Date: 02 February 2026
Orbit: 522 x 609 km, 62.0° (Epoch: 13 February)

Event Time Altitude Azimuth Distance (km) Brightness Sun altitude
Rises 17:34:36 0° 276° (W) 2,688 7.7 -12.5°
Reaches altitude 10° 17:37:23 10° 296° (WNW) 1,786 6.1 -12.9°
Maximum altitude 17:40:11 18° 340° (NNW) 1,350 4.7 -13.4°
Drops below altitude 10° 17:42:57 10° 25° (NNE) 1,773 4.9 -13.8°
Enters shadow 17:43:08 - 26° (NNE) 1,821 4.9 -13.9°
